TimeAKST,TemperatureF,Dew PointF,Humidity,Sea Level PressureIn,VisibilityMPH,Wind Direction,Wind SpeedMPH,Gust SpeedMPH,PrecipitationIn,Events,Conditions,WindDirDegrees,DateUTC
12:53 AM,-2.0,-2.9,96,30.22,7.0,ENE,10.4,-,N/A,,Mostly Cloudy,70,2014-01-05 09:53:00
1:53 AM,-4.0,-7.1,87,30.19,9.0,ENE,19.6,-,N/A,,Clear,70,2014-01-05 10:53:00
3:53 AM,-4.0,-8.0,83,30.15,9.0,East,16.1,-,N/A,,Clear,80,2014-01-05 12:53:00
4:53 AM,-2.9,-7.1,82,30.13,9.0,East,12.7,-,N/A,,Clear,80,2014-01-05 13:53:00
5:53 AM,-6.0,-9.0,87,30.10,8.0,East,6.9,-,N/A,,Clear,80,2014-01-05 14:53:00
6:53 AM,-4.0,-7.1,87,30.09,8.0,East,12.7,-,N/A,,Clear,80,2014-01-05 15:53:00
7:53 AM,-2.9,-6.0,87,30.06,8.0,East,15.0,-,N/A,,Clear,90,2014-01-05 16:53:00
8:53 AM,-4.0,-8.0,83,30.04,7.0,East,20.7,-,N/A,,Clear,80,2014-01-05 17:53:00
9:53 AM,-5.1,-8.0,87,30.03,7.0,East,16.1,-,N/A,,Clear,100,2014-01-05 18:53:00
10:53 AM,-6.0,-8.0,91,30.02,7.0,East,18.4,-,N/A,,Clear,100,2014-01-05 19:53:00
11:53 AM,-6.0,-9.0,87,30.01,6.0,East,20.7,-,N/A,,Clear,80,2014-01-05 20:53:00
12:53 PM,-7.1,-9.0,91,30.00,7.0,East,17.3,-,N/A,,Clear,90,2014-01-05 21:53:00
1:53 PM,-7.1,-9.9,87,29.99,7.0,East,17.3,-,N/A,,Clear,100,2014-01-05 22:53:00
2:53 PM,-6.0,-9.0,87,29.98,7.0,East,23.0,-,N/A,,Clear,90,2014-01-05 23:53:00
3:53 PM,-6.0,-9.0,87,29.96,8.0,East,20.7,-,N/A,,Clear,80,2014-01-06 00:53:00
4:53 PM,-6.0,-9.0,87,29.95,7.0,East,20.7,-,N/A,,Clear,90,2014-01-06 01:53:00
5:53 PM,-6.0,-9.0,87,29.95,7.0,East,23.0,-,N/A,,Clear,90,2014-01-06 02:53:00
6:53 PM,-6.0,-9.0,87,29.94,8.0,East,17.3,-,N/A,,Clear,90,2014-01-06 03:53:00
7:53 PM,-8.0,-11.0,86,29.94,10.0,East,18.4,-,N/A,,Clear,100,2014-01-06 04:53:00
8:53 PM,-9.0,-11.9,87,29.94,9.0,ESE,5.8,-,N/A,,Clear,120,2014-01-06 05:53:00
9:53 PM,-2.9,-6.0,87,29.94,7.0,East,17.3,-,N/A,,Scattered Clouds,80,2014-01-06 06:53:00
10:00 PM,-2.9,-6.0,87,29.93,6.0,East,16.1,-,N/A,,Mostly Cloudy,90,2014-01-06 07:00:00
10:21 PM,-5.1,-8.0,87,29.93,9.0,East,16.1,-,N/A,,Scattered Clouds,90,2014-01-06 07:21:00
10:53 PM,-8.0,-9.9,91,29.94,9.0,East,13.8,-,N/A,,Clear,90,2014-01-06 07:53:00
11:53 PM,-6.0,-9.0,87,29.94,9.0,East,19.6,-,N/A,,Partly Cloudy,90,2014-01-06 08:53:00